Regional Weather Roundup
Issued by NWS

Home | Current Version | Previous Version | Graphics & Text | Print | Product List | Glossary On
Versions: 1 2 3 4 5 6 7 8 9 10 11 12 13 14 15 16 17 18 19 20 21 22 23 24 25 26 27 28 29 30 31 32 33 34 35 36 37 38 39 40 41 42 43 44 45 46 47 48 49 50
000
ASUS43 KMPX 250901
RWRMN
WEATHER ROUNDUP FOR MINNESOTA
NATIONAL WEATHER SERVICE TWIN CITIES/CHANHASSEN MN
400 AM CDT THU MAY 25 2017


NOTE: "FAIR" INDICATES FEW OR NO CLOUDS BELOW 12,000 FEET WITH NO
SIGNIFICANT WEATHER AND/OR OBSTRUCTIONS TO VISIBILITY. N/A MEANS
CURRENT SKY AND/OR WEATHER CONDITIONS ARE NOT AVAILABLE.

MNZ060>063-068>070-251000-
   Twin Cities Metro

CITY           SKY/WX    TMP DP  RH WIND       PRES   REMARKS
TWIN CITIES    CLEAR     51  47  86 E7        29.69S
ST PAUL        CLEAR     48  47  96 CALM      29.70S
CRYSTAL        CLEAR     45  41  86 CALM      29.68S
BLAINE         CLEAR     48  48 100 CALM      29.69S
LAKEVILLE        N/A     45  45 100 CALM      29.69R FOG
EDEN PRAIRIE   CLEAR     48  44  86 E3        29.68R
SOUTH ST PAUL  CLEAR     48  47  95 CALM      29.70R
LAKE ELMO      FAIR      46  46 100 E3        29.71S
$$
MNZ001>005-007-008-013>017-022>024-027-028-251000-
   Northwest Minnesota

CITY           SKY/WX    TMP DP  RH WIND       PRES   REMARKS
BEMIDJI        PTCLDY    45  42  89 E8        29.67F
HALLOCK        PTCLDY    50  43  76 SE13      29.60F
ROSEAU         CLOUDY    48  43  81 SE8       29.66R
WARROAD        CLOUDY    48  43  81 SE7       29.67S
CROOKSTON      PTCLDY    46  43  87 SE12      29.62F
FOSSTON        CLEAR     45  39  81 SE6       29.66R
DETROIT LAKES  CLEAR     46  43  87 SE7       29.65F
MOORHEAD       CLEAR     50  41  71 SE8       29.62S
PARK RAPIDS    CLEAR     49  42  77 E7        29.66S
MAHNOMEN       FAIR      46  41  85 SE6       29.64F
$$
MNZ006-009>011-018-025>026-251000-
   North Central Minnesota

CITY           SKY/WX    TMP DP  RH WIND       PRES   REMARKS
BAUDETTE       CLEAR     43  39  86 SE8       29.69S
FLAG ISLAND    CLEAR     52  45  76 S20       29.67R
INTL FALLS     CLEAR     40  36  86 SE5       29.72S
WASKISH        CLEAR     45  39  81 E3        29.69F
BIG FORK       CLEAR     45  39  81 SE3       29.71F
LONGVILLE      CLEAR     43  41  93 CALM      29.69S
GRAND RAPIDS   CLEAR     39  38  96 CALM      29.73S
CRANE LAKE     CLEAR     32  30  93 CALM      29.76R
ORR            CLEAR     39  36  87 CALM      29.71R
COOK           CLEAR     36  34  93 CALM      29.74S
WALKER         CLOUDY    47  43  85 SE3       29.68S
$$
MNZ012-019>021-037-251000-
   Northeast Minnesota

CITY           SKY/WX    TMP DP  RH WIND       PRES   REMARKS
DULUTH         CLEAR     42  40  92 E8        29.73R
ELY            CLEAR     32  30  93 CALM      29.74F
HIBBING        CLEAR     32  32 100 NW5       29.73R FOG     WCI  27
EVELETH        CLEAR     37  36  94 NE3       29.74S
DULUTH HARBOR  CLEAR     43  41  93 NE7       29.76R
TWO HARBORS    CLEAR     43  37  81 NE5       29.73S
SILVER BAY     CLEAR     36  36 100 CALM      29.74S
GRAND MARAIS     N/A     41  38  89 CALM      29.76S
G MARAIS ARPRT CLEAR     39  34  81 NE3       29.77S
$$
MNZ029>031-032-039>041-046>048-054>057-064-251000-
   West Central Minnesota

CITY           SKY/WX    TMP DP  RH WIND       PRES   REMARKS
FERGUS FALLS   PTCLDY    52  41  66 SE10      29.62S
WHEATON        CLEAR     48  45  87 SE12      29.62S
MORRIS         CLEAR     48  45  87 SE10      29.62F
ALEXANDRIA     CLOUDY    46  42  86 SE8       29.66S
ELBOW LAKE     FAIR      49  43  80 SE9       29.63S
WADENA         CLEAR     46  43  87 E6        29.66S
GLENWOOD       PTCLDY    45  43  93 SE7       29.66F
APPLETON       CLEAR     50  45  81 SE8       29.63S
BENSON         CLEAR     50  45  81 S10       29.66S
ORTONVILLE     CLEAR     48  45  87 SE10      29.61S
MADISON        CLEAR     50  48  93 SE9       29.63S
WILLMAR        FAIR      46  43  87 SE7       29.68R
$$
MNZ033>034-036-042>043-049>051-058-059-251000-
   Central Minnesota

CITY           SKY/WX    TMP DP  RH WIND       PRES   REMARKS
ST CLOUD       CLEAR     48  47  96 E6        29.68F
SAUK CENTRE    FAIR      46  43  91 E5        29.67S
PAYNESVILLE    CLEAR     48  48 100 SE5       29.67S
AITKIN         CLOUDY    45  43  93 CALM      29.69S
PINE RIVER     PTCLDY    46  43  87 CALM      29.73R
BRAINERD       CLOUDY    49  45  86 VRB3      29.69S
STAPLES        CLEAR     48  43  81 E5        29.67S
LONG PRAIRIE   FAIR      45  43  93 E6        29.67F
LITTLE FALLS   CLEAR     46  43  87 E3        29.69R
LITCHFIELD     CLEAR     46  45  93 CALM      29.68S
BUFFALO        CLEAR     44  42  92 CALM      29.69S
MAPLE LAKE     FOG       44  43  99 CALM      29.69S VSB 3/4
HUTCHINSON     PTCLDY    46  44  94 E3        29.68S
$$
MNZ037-044-045-052-053-251000-
   East Central Minnesota

CITY           SKY/WX    TMP DP  RH WIND       PRES   REMARKS
PRINCETON      CLEAR     48  46  93 CALM      29.69F
MORA           CLOUDY    48  43  81 CALM      29.72S
CAMBRIDGE      CLEAR     52  45  76 CALM      29.68F
RUSH CITY      CLOUDY    51  47  87 CALM      29.71S
MOOSE LAKE     CLEAR     39  37  93 CALM      29.72R
HINCKLEY       CLOUDY    50  45  81 CALM      29.72S
CLOQUET        CLEAR     39  37  93 CALM      29.73S FOG
MCGREGOR       CLOUDY    45  43  93 E3        29.72S
$$
MNZ071>073-080-081-089-090-097-098-251000-
   Southwest Minnesota

CITY           SKY/WX    TMP DP  RH WIND       PRES   REMARKS
MONTEVIDEO     CLEAR     46  45  93 S8        29.64F
CANBY          CLEAR     46  44  92 CALM      29.63F
MARSHALL       CLEAR     47  44  90 SE10      29.64F
REDWOOD FALLS  CLEAR     47  43  86 SE5       29.66S
OLIVIA         CLEAR     46  43  87 SE3       29.66S
PIPESTONE      CLEAR     48  43  81 SE12      29.62F
WINDOM         CLEAR     46  45  93 SE5       29.67R
WORTHINGTON    CLEAR     46  43  89 SE8       29.66F
JACKSON        CLEAR     46  45  93 CALM      29.67S
TRACY          CLEAR     48  46  91 S9        29.65S
SLAYTON        CLEAR     44  42  95 SE8       29.66F
$$
MNZ065>067-074>077-082>085-091>093-251000-
   South Central Minnesota

CITY           SKY/WX    TMP DP  RH WIND       PRES   REMARKS
MANKATO        LGT RAIN  47  46  97 E6        29.68
NEW ULM        CLEAR     46  45  93 SE6       29.67S
ST JAMES       CLEAR     45  45 100 SE5       29.68S
FAIRMONT       CLEAR     46  45  96 CALM      29.68R
GLENCOE        CLEAR     46  47 100 E3        29.67S
FARIBAULT      PTCLDY    45  45 100 CALM      29.69S FOG
OWATONNA       CLEAR     46  45  93 CALM      29.69R
WASECA         CLEAR     45  43  93 E5        29.70S
ALBERT LEA       N/A     45  45 100 CALM      29.69R
$$
MNZ078>079-086>088-094>096-251000-
   Southeast Minnesota

CITY           SKY/WX    TMP DP  RH WIND       PRES   REMARKS
ROCHESTER      CLEAR     47  47 100 E6        29.70S
RED WING       CLEAR     46  45  93 NE3       29.69S
STANTON        CLEAR     49  47  93 E3        29.68R
DODGE CENTER   CLEAR     46  46 100 E3        29.69S
WINONA         MOCLDY    46  46 100 NW5       29.71R
AUSTIN         CLEAR     45  43  93 CALM      29.69R
PRESTON        CLOUDY    50  47  89 E5        29.70R
$$
ABBREVIATIONS USED IN REMARKS
   TC - TEMPERATURES IN CELSIUS
  WCI - WIND CHILL INDEX
   HX - HEAT INDEX
  VSB - VISIBILITY
$$




USA.gov is the U.S. government's official web portal to all federal, state and local government web resources and services.